User: anonymous   Login
Location: *
(40.7765°S, 106.5327°E)
Time: 07:41:09
(UTC+00:00)
Language:

AQUARIUS - Orbit

View from above orbital plane
View from above orbital plane
View from above satellite
View from above satellite

Ground track
Ground track

The orbit data is extracted from the following two-line orbital elements,

1 37673U 11024A   22230.51713125  .00000571  00000-0  95556-4 0  9995
2 37673  98.0041 238.2917 0000738  77.0124  37.5128 14.73517644601455
Epoch (UTC): 18 August 2022 12:24:40
Eccentricity: 0.0000738
inclination: 98.0041°
perigee height: 649 km
apogee height: 650 km
right ascension of ascending node: 238.2917°
argument of perigee: 77.0124°
revolutions per day: 14.73517644
mean anomaly at epoch: 37.5128°
orbit number at epoch: 60145

The dashed part of the orbit path shows where the satellite is in the earth's shadow,  

DLR